STARLINK-34303, 64168

Orbit data source: Space-Track

STARLINK-34303, 64168 is a payload satellite owned by SpaceX/Seattle (US) in SSO that was launched on Tue, 27 May 2025 UTC via an FALCON 9 launch vehicle from the Air Force Western Test Range (AFWTR). Payload-class satellites include a variety of spacecraft equipped with specific instruments for various scientific and technological missions. These include communications satellites like Starlink; space stations such as the ISS; scientific satellites like the Hubble; Earth observation satellites from companies like Planet Labs, Umbra, and HawkEye 360; GPS; miniature CubeSats for education and research; and military/defense satellites.

Loading next visibility...
Identifier
64168, 2025-112Y
Orbit
SSO
Country
Flag of USUS
Related business
Manufacturer
SpaceX/Seattle
Mission
Operational Commercial Communications
Bus & Motor
STARLINK V2MO, Unknown motor
Mass
575 kg wet, ~530 kg dry
Launch date (UTC)
2025-05-27 (1 year ago)
Launch vehicle
FALCON 9
Launch site
Air Force Western Test Range (AFWTR)
Object type
Payload
Rocket body
Debris
Shape & HBR
Box + 1 Pan, 17.7 m
Radar Cross Section
41.120 m², Large (>1 m²)

Expand to show TLE details & history
Last TLE update: 18 hours ago

TLE from 18 hours ago
0 STARLINK-34303
1 64168U 25112Y   26236.40547417  .00009302  00000-0  29010-3 0  9996
2 64168  97.2835 283.8392 0001219  91.3271 268.8112 15.33446558 68592
Epoch: 2026-08-24T09:43Z
TLE epoch observation values (Epoch: 2026-08-24T09:43:52.968Z)
Latitude
0.00005°
Longitude
165.18085°
Altitude
468.668 km
Speed
7.632 km/s
True Right ascension
18h 55m 21s
True Declination
0° 00' 00"
Sunlit
Object was in full shadow at epoch
Visualization orbit readout
Latitude
Unknown
Longitude
Unknown
Altitude
Unknown
Speed
Unknown
Apparent Right ascension
Unknown
Apparent Declination
Unknown
Sunlit
N/A
Visualization observer readout
Local Sidereal Time
18:46:13
Azimuth
Unknown
Elevation
Unknown
Doppler factor
Unknown
Orbital elements
Apogee altitude
463.315 km
Perigee altitude
461.647 km
Semi-major axis
6,840.618 km
Eccentricity
0.00012
Inclination
97.2835°
RAAN
283.8392°
Arg. of periapsis
91.3271°
True anomaly
268.79723°
Mean anomaly
268.8112°
Eccentric anomaly
268.80422°
Mean motion
3.83619 °/min
Orbital period
93.84 mins
BSTAR
0.0002901
Loading maneuver chart data...
Computing Atmospheric mass density...
Loading historical data...
Loading historical data...
Loading historical data...
Loading historical data...
Loading historical data...
Loading historical data...
Loading historical data...

Documentation

Showing up to 5 results
|